Weather Service Report


296 
ASUS43 KFSD 221010
RWRFSD

WEATHER ROUNDUP FOR SE SOUTH DAKOTA/SW MINNESOTA/NW IOWA
NATIONAL WEATHER SERVICE SIOUX FALLS SD
400 AM CST WED NOV 22 2017

NOTE: "FAIR" INDICATES FEW OR NO CLOUDS BELOW 12,000 FEET WITH NO
SIGNIFICANT WEATHER AND OR OBSTRUCTIONS TO VISIBILITY.


SDZ038>040-050-052>070-221100-
SOUTHEAST SOUTH DAKOTA
  
CITY           SKY/WX    TMP DP  RH WIND       PRES   REMARKS
BROOKINGS      CLOUDY    10   7  87 SE7       30.29F WCI  -1          
CHAMBERLAIN    CLOUDY    18  14  86 SE6       30.24F WCI   9          
HURON          CLOUDY    14   8  77 S7        30.29F WCI   4          
MADISON        FAIR      10   9  92 SW5       30.29F WCI   2          
MITCHELL       CLOUDY    14   9  80 S3        30.32F                  
SIOUX FALLS    CLOUDY    11   7  84 CALM      30.33F                  
WINNER         FAIR      22  14  71 SE8       30.21F WCI  12          
YANKTON        CLOUDY    13  10  88 CALM      30.34F                  
$$

MNZ071-072-080-081-089-090-097-098-221100-
SOUTHWEST MINNESOTA
  
CITY           SKY/WX    TMP DP  RH WIND       PRES   REMARKS
FAIRMONT       CLOUDY    14   9  80 NW6       30.36F WCI   5          
JACKSON        CLOUDY    12   7  79 CALM      30.34S                  
LUVERNE        CLOUDY     9   3  78 CALM      30.34F                  
MARSHALL       CLOUDY    11   6  81 S5        30.34F WCI   3          
MONTEVIDEO     CLOUDY    10   7  85 SW3       30.33F                  
PIPESTONE      CLOUDY    10   5  79 NE5       30.29F WCI   2          
REDWOOD FALLS  CLOUDY    13   6  74 W5        30.35F WCI   5          
WINDOM         CLOUDY     9  -2  61 W3        30.34S                  
WORTHINGTON    CLOUDY    11   7  84 SW3       30.33F                  
$$

IAZ001>003-012>014-020>022-031-032-NEZ013-014-SDZ071-221100-
NORTHWEST IOWA
  
CITY           SKY/WX    TMP DP  RH WIND       PRES   REMARKS
CHEROKEE       CLOUDY    12  10  90 CALM      30.36F                  
DENISON        CLOUDY    14  10  85 CALM      30.39F                  
ESTHERVILLE    CLOUDY     8   6  92 W6        30.35S WCI  -2          
LE MARS        CLOUDY    12   9  85 CALM      30.37S                  
ORANGE CITY    CLOUDY    14   9  79 CALM      30.34S                  
SHELDON        CLOUDY     9   5  85 CALM      30.33F                  
SIOUX CITY     CLOUDY    13   8  81 CALM      30.38F                  
SPENCER        CLOUDY     9   5  84 W3        30.36S                  
STORM LAKE     CLOUDY    12   7  79 NW6       30.35S WCI   3          
$$
 
ABBREVIATIONS USED IN REMARKS
   TC - TEMPERATURE IN CELSIUS
  WCI - WIND CHILL INDEX
   HX - HEAT INDEX
  VSB - VISIBILITY

  


298 
ASUS43 KFSD 221010
RWRSD 

WEATHER ROUNDUP FOR SOUTH DAKOTA
NATIONAL WEATHER SERVICE SIOUX FALLS SD
400 AM CST WED NOV 22 2017

NOTE: "FAIR" INDICATES FEW OR NO CLOUDS BELOW 12,000 FEET WITH NO
SIGNIFICANT WEATHER AND/OR OBSTRUCTIONS TO VISIBILITY.


SDZ001>005-009-010-012>017-221100-
NORTHWEST AND NORTH CENTRAL SOUTH DAKOTA
  
CITY           SKY/WX    TMP DP  RH WIND       PRES   REMARKS
BUFFALO          N/A     25  18  74 SE6       29.96F WCI  18          
FAITH            N/A     18  11  74 S18       30.07F WCI   2          
MOBRIDGE       CLOUDY    22  14  71 S12       30.14F WCI  10          
$$
 
SDZ012>016-024>037-041>051-057-063-072>074-221100-
SOUTHWEST AND SOUTH CENTRAL SOUTH DAKOTA
  
CITY           SKY/WX    TMP DP  RH WIND       PRES   REMARKS
RAPID CTY ARPT CLOUDY    28  21  75 CALM      30.07F                  
PIERRE         CLOUDY    18  12  77 SE8       30.17F WCI   8          
CUSTER         CLOUDY    43  19  38 W10       30.09S                  
ELLSWORTH AFB  CLOUDY    28  22  79 W5        30.05F WCI  23          
PHILIP         CLOUDY    20  17  88 CALM      30.13F                  
PINE RIDGE     CLOUDY    36  28  73 W6        30.12F                  
SPEARFISH      FAIR      45  25  45 W9        30.05F                  
WINNER         FAIR      22  14  71 SE8       30.21F WCI  12          
$$
 
SDZ004>011-016>023-039-040-221100-
NORTHEAST SOUTH DAKOTA
  
CITY           SKY/WX    TMP DP  RH WIND       PRES   REMARKS
ABERDEEN       CLOUDY     4   1  88 S5        30.26F WCI  -5          
WATERTOWN      CLOUDY     9   6  88 S6        30.24F WCI  -1          
BROOKINGS      CLOUDY    10   7  87 SE7       30.29F WCI  -1          
SISSETON         N/A      9   5  84 S8        30.27F WCI  -3          
$$
 
SDZ017-020-022-023-036>040-048>070-221100-
SOUTHEAST SOUTH DAKOTA
  
CITY           SKY/WX    TMP DP  RH WIND       PRES   REMARKS
SIOUX FALLS    CLOUDY    11   7  84 CALM      30.33F                  
HURON          CLOUDY    14   8  77 S7        30.29F WCI   4          
CHAMBERLAIN    CLOUDY    18  14  86 SE6       30.24F WCI   9          
MITCHELL       CLOUDY    14   9  80 S3        30.32F                  
YANKTON        CLOUDY    13  10  88 CALM      30.34F                  
$$
 
ABBREVIATIONS USED IN REMARKS
   TC - TEMPERATURE IN CELSIUS
  WCI - WIND CHILL INDEX
   HX - HEAT INDEX
  VSB - VISIBILITY

  

Return to Home page


Western Regional Climate Center, wrcc@dri.edu